^^
NorthLandsweather Station Historical Data
Daily Summary for March 15, 2019 Units:  Metric    English   Both
Daily Weekly Monthly Yearly Custom
  High: Low: Average:
Temperature: 1.6 °C -2.7 °C -0.7 °C
Dew Point: 0.6 °C -8 °C -4.2 °C
Humidity: 93% 58% 78%
Wind Speed: 31.5km/h 0km/h 10.3km/h
Wind Gust: 12.1km/h - -
Wind- - WSW
Pressure: 1022.2 hPa 999.5 hPa -
Precipitation: 0.76 mm    
Historical Graphs
 
 
Tabular Data for March 15, 2019
Time Temperature Dew Point Pressure Wind Wind Speed Wind Gust Humidity Rainfall Rate (Hourly) solar
00:04 1.6 °C 0.6 °C 999.9 hPa NW 5.6 km/h 2.3 km/h 93% 0 mm 0.00 W/m2
00:09 1.6 °C 0.6 °C 999.9 hPa WNW 5.6 km/h 1.9 km/h 93% 0 mm 0.00 W/m2
00:14 1.6 °C 0.6 °C 999.5 hPa WNW 16.7 km/h 5 km/h 93% 0 mm 0.00 W/m2
00:19 1.4 °C 0.4 °C 999.9 hPa WNW 16.7 km/h 6.4 km/h 93% 0 mm 0.00 W/m2
00:24 1.4 °C 0.2 °C 999.5 hPa WNW 9.3 km/h 2.9 km/h 92% 0 mm 0.00 W/m2
00:29 1.3 °C 0.3 °C 999.5 hPa NW 4.8 km/h 2.9 km/h 93% 0 mm 0.00 W/m2
00:34 1.3 °C 0.3 °C 999.5 hPa West 5.6 km/h 3.2 km/h 93% 0 mm 0.00 W/m2
00:39 1.3 °C 0.3 °C 999.9 hPa West 4.8 km/h 4.7 km/h 93% 0 mm 0.00 W/m2
00:44 1.2 °C 0.2 °C 999.9 hPa WSW 11.1 km/h 4.7 km/h 93% 0 mm 0.00 W/m2
00:49 1.2 °C 0.2 °C 1000.2 hPa North 5.6 km/h 0.2 km/h 93% 0 mm 0.00 W/m2
00:54 1.1 °C 0.1 °C 1000.2 hPa SW 7.4 km/h 2.1 km/h 93% 0 mm 0.00 W/m2
00:59 1.1 °C 0.1 °C 1000.2 hPa West 13 km/h 9.3 km/h 93% 0 mm 0.00 W/m2
01:04 1 °C 0 °C 1000.6 hPa North 16.1 km/h 3.5 km/h 93% 0 mm 0.00 W/m2
01:09 1 °C 0 °C 1000.6 hPa WNW 5.6 km/h 1.1 km/h 93% 0 mm 0.00 W/m2
01:14 0.9 °C -0.1 °C 1000.9 hPa NNW 5.6 km/h 7.1 km/h 93% 0 mm 0.00 W/m2
01:19 0.9 °C -0.1 °C 1000.9 hPa NNW 16.7 km/h 1.1 km/h 93% 0 mm 0.00 W/m2
01:24 0.9 °C -0.3 °C 1000.9 hPa West 6.4 km/h 2.3 km/h 92% 0 mm 0.00 W/m2
01:29 0.8 °C -0.3 °C 1001.2 hPa NNW 6.4 km/h 3.1 km/h 92% 0 mm 0.00 W/m2
01:34 0.8 °C -0.3 °C 1001.2 hPa WNW 5.6 km/h 5.3 km/h 92% 0 mm 0.00 W/m2
01:39 0.8 °C -0.3 °C 1001.6 hPa SW 3.7 km/h 4.3 km/h 92% 0 mm 0.00 W/m2
01:44 0.8 °C -0.3 °C 1001.9 hPa WSW 9.3 km/h 1.6 km/h 92% 0 mm 0.00 W/m2
01:49 0.8 °C -0.4 °C 1001.9 hPa WNW 14.5 km/h 5.1 km/h 92% 0 mm 0.00 W/m2
01:54 0.8 °C -0.5 °C 1001.9 hPa SW 16.7 km/h 1.8 km/h 91% 0 mm 0.00 W/m2
01:59 0.8 °C -0.5 °C 1001.9 hPa SW 13 km/h 1.9 km/h 91% 0 mm 0.00 W/m2
02:04 0.8 °C -0.5 °C 1001.9 hPa West 16.7 km/h 5.3 km/h 91% 0 mm 0.00 W/m2
02:09 0.7 °C -0.6 °C 1002.3 hPa NNW 7.4 km/h 5.8 km/h 91% 0 mm 0.00 W/m2
02:14 0.7 °C -0.6 °C 1002.3 hPa North 5.6 km/h 1.9 km/h 91% 0 mm 0.00 W/m2
02:19 0.7 °C -0.6 °C 1002.3 hPa NNW 13 km/h 5.6 km/h 91% 0 mm 0.00 W/m2
02:24 0.7 °C -0.6 °C 1002.6 hPa West 14.8 km/h 1.8 km/h 91% 0 mm 0.00 W/m2
02:29 0.7 °C -0.6 °C 1002.6 hPa NW 3.7 km/h 2.1 km/h 91% 0 mm 0.00 W/m2
02:34 0.7 °C -0.6 °C 1002.6 hPa NW 3.7 km/h 0.3 km/h 91% 0 mm 0.00 W/m2
02:39 0.6 °C -0.7 °C 1002.9 hPa West 11.1 km/h 5.3 km/h 91% 0 mm 0.00 W/m2
02:44 0.6 °C -0.6 °C 1002.9 hPa West 5.6 km/h 3.9 km/h 92% 0 mm 0.00 W/m2
02:49 0.5 °C -0.8 °C 1002.9 hPa North 13 km/h 7.1 km/h 91% 0 mm 0.00 W/m2
02:54 0.4 °C -1 °C 1002.9 hPa NE 14.8 km/h 1.3 km/h 90% 0 mm 0.00 W/m2
02:59 0.4 °C -1.1 °C 1002.9 hPa West 14.8 km/h 4.8 km/h 90% 0.25 mm 0.00 W/m2
03:04 0.4 °C -1.2 °C 1002.9 hPa NE 7.4 km/h 2.7 km/h 89% 0.25 mm 0.00 W/m2
03:09 0.4 °C -1.2 °C 1002.9 hPa West 1.9 km/h 0.6 km/h 89% 0.25 mm 0.00 W/m2
03:14 0.4 °C -1.2 °C 1003.3 hPa WNW 5.6 km/h 2.4 km/h 89% 0.25 mm 0.00 W/m2
03:19 0.4 °C -1.4 °C 1003.3 hPa SSW 16.7 km/h 12.1 km/h 88% 0.25 mm 0.00 W/m2
03:24 0.3 °C -1.4 °C 1003.6 hPa NE 18.5 km/h 1.9 km/h 88% 0.25 mm 0.00 W/m2
03:29 0.3 °C -1.4 °C 1003.6 hPa WSW 13 km/h 4.8 km/h 88% 0.25 mm 0.00 W/m2
03:34 0.3 °C -1.6 °C 1003.6 hPa NW 22.2 km/h 3.9 km/h 87% 0.25 mm 0.00 W/m2
03:39 0.2 °C -1.8 °C 1003.6 hPa NW 16.7 km/h 6.8 km/h 86% 0.25 mm 0.00 W/m2
03:44 0.2 °C -1.8 °C 1003.6 hPa West 18.5 km/h 5.3 km/h 86% 0.25 mm 0.00 W/m2
03:49 0.2 °C -1.9 °C 1003.6 hPa NNE 8 km/h 4.5 km/h 86% 0.25 mm 0.00 W/m2
03:54 0.1 °C -2.1 °C 1003.9 hPa WSW 11.1 km/h 6.4 km/h 85% 0.25 mm 0.00 W/m2
03:59 0.1 °C -1.9 °C 1003.9 hPa WNW 14.8 km/h 4.5 km/h 86% 0 mm 0.00 W/m2
04:04 0.1 °C -2 °C 1004.3 hPa North 5.6 km/h 4.8 km/h 86% 0 mm 0.00 W/m2
04:09 0 °C -2.1 °C 1004.3 hPa NNE 14.8 km/h 8.2 km/h 86% 0 mm 0.00 W/m2
04:14 -0.1 °C -2.1 °C 1004.6 hPa WNW 18.5 km/h 6.4 km/h 86% 0 mm 0.00 W/m2
04:19 -0.1 °C -2.3 °C 1004.6 hPa WNW 18.5 km/h 5.1 km/h 85% 0 mm 0.00 W/m2
04:24 -0.1 °C -2.3 °C 1004.6 hPa WSW 9.3 km/h 1 km/h 85% 0 mm 0.00 W/m2
04:29 -0.2 °C -2.4 °C 1005 hPa WNW 14.8 km/h 6.9 km/h 85% 0 mm 0.00 W/m2
04:34 -0.2 °C -2.6 °C 1005 hPa NE 18.5 km/h 5.1 km/h 84% 0 mm 0.00 W/m2
04:39 -0.3 °C -2.5 °C 1005 hPa NW 13 km/h 7.4 km/h 85% 0 mm 0.00 W/m2
04:44 -0.3 °C -2.7 °C 1005 hPa West 20.4 km/h 5.6 km/h 84% 0 mm 0.00 W/m2
04:49 -0.4 °C -2.8 °C 1005.3 hPa WNW 11.1 km/h 7.9 km/h 84% 0 mm 0.00 W/m2
04:54 -0.4 °C -2.7 °C 1005.3 hPa SW 8 km/h 4.8 km/h 85% 0 mm 0.00 W/m2
04:59 -0.6 °C -2.9 °C 1005.3 hPa West 13 km/h 5 km/h 84% 0 mm 0.00 W/m2
05:04 -0.6 °C -3 °C 1005.6 hPa North 18.5 km/h 4.7 km/h 84% 0 mm 0.00 W/m2
05:09 -0.6 °C -2.8 °C 1005.6 hPa WSW 9.3 km/h 2.4 km/h 85% 0 mm 0.00 W/m2
05:14 -0.7 °C -2.9 °C 1005.6 hPa NNE 5.6 km/h 5.1 km/h 85% 0 mm 0.00 W/m2
05:19 -0.7 °C -2.9 °C 1006 hPa NNW 13 km/h 1 km/h 85% 0 mm 0.00 W/m2
05:24 -0.7 °C -2.9 °C 1006 hPa SSW 3.7 km/h 0.5 km/h 85% 0 mm 0.00 W/m2
05:29 -0.7 °C -2.9 °C 1006 hPa NNW 7.4 km/h 2.9 km/h 85% 0 mm 0.00 W/m2
05:34 -0.7 °C -2.7 °C 1006.3 hPa West 5.6 km/h 1.9 km/h 86% 0 mm 0.00 W/m2
05:39 -0.7 °C -2.7 °C 1006.3 hPa North 5.6 km/h 1.3 km/h 86% 0 mm 0.00 W/m2
05:44 -0.7 °C -2.7 °C 1006.3 hPa WNW 8 km/h 5.3 km/h 86% 0 mm 0.00 W/m2
05:49 -0.7 °C -2.7 °C 1006.7 hPa NW 9.7 km/h 6 km/h 86% 0 mm 0.00 W/m2
05:54 -0.7 °C -2.6 °C 1006.7 hPa WSW 4.8 km/h 3.1 km/h 87% 0 mm 0.00 W/m2
05:59 -0.7 °C -2.6 °C 1006.7 hPa WSW 8 km/h 6.6 km/h 87% 0 mm 0.00 W/m2
06:04 -0.7 °C -2.7 °C 1006.7 hPa North 13 km/h 7.7 km/h 86% 0 mm 0.00 W/m2
06:09 -0.7 °C -2.7 °C 1007 hPa WNW 6.4 km/h 2.7 km/h 86% 0 mm 0.00 W/m2
06:14 -0.8 °C -2.7 °C 1007.3 hPa WSW 31.5 km/h 6 km/h 87% 0 mm 0.00 W/m2
06:19 -0.9 °C -2.6 °C 1007.3 hPa West 18.5 km/h 5 km/h 88% 0 mm 0.00 W/m2
06:24 -1.1 °C -2.6 °C 1007.7 hPa WSW 5.6 km/h 1.8 km/h 89% 0.25 mm 0.00 W/m2
06:29 -1.2 °C -2.7 °C 1007.7 hPa WSW 9.3 km/h 5.3 km/h 89% 0.25 mm 0.00 W/m2
06:34 -1.3 °C -2.8 °C 1007.7 hPa NE 22.2 km/h 4.7 km/h 89% 0.25 mm 0.00 W/m2
06:39 -1.3 °C -2.9 °C 1008 hPa West 11.1 km/h 2.6 km/h 89% 0.25 mm 0.00 W/m2
06:44 -1.4 °C -3 °C 1008 hPa NNE 14.8 km/h 4.7 km/h 89% 0.25 mm 0.00 W/m2
06:49 -1.5 °C -2.9 °C 1008 hPa NW 5.6 km/h 3.4 km/h 90% 0.25 mm 0.00 W/m2
06:54 -1.6 °C -3 °C 1008 hPa SW 7.4 km/h 2.7 km/h 90% 0.25 mm 0.00 W/m2
06:59 -1.6 °C -3 °C 1008.4 hPa West 3.7 km/h 1.4 km/h 90% 0.25 mm 0.00 W/m2
07:04 -1.6 °C -2.9 °C 1008.4 hPa WSW 9.3 km/h 3.2 km/h 91% 0.25 mm 0.00 W/m2
07:09 -1.7 °C -2.9 °C 1008.4 hPa West 7.4 km/h 3.7 km/h 91% 0.25 mm 0.00 W/m2
07:14 -1.7 °C -2.9 °C 1008.7 hPa North 9.3 km/h 4.5 km/h 91% 0.25 mm 0.00 W/m2
07:19 -1.7 °C -3 °C 1008.7 hPa West 8 km/h 6.4 km/h 91% 0.25 mm 0.00 W/m2
07:24 -1.7 °C -3 °C 1008.7 hPa WSW 14.8 km/h 6.4 km/h 91% 0.25 mm 71.40 W/m2
07:29 -1.7 °C -3 °C 1009 hPa WNW 7.4 km/h 2.1 km/h 91% 0.25 mm 88.60 W/m2
07:34 -1.7 °C -3 °C 1009 hPa WNW 13 km/h 8.7 km/h 91% 0.25 mm 115.80 W/m2
07:39 -1.7 °C -3.2 °C 1009.4 hPa NE 6.4 km/h 3.9 km/h 90% 0.25 mm 132.00 W/m2
07:44 -1.7 °C -3.2 °C 1009.4 hPa NNW 8 km/h 7.4 km/h 90% 0.25 mm 140.10 W/m2
07:49 -1.7 °C -3.1 °C 1009.4 hPa NW 11.3 km/h 3.5 km/h 90% 0.25 mm 140.10 W/m2
07:54 -1.7 °C -3.2 °C 1009.7 hPa West 18.5 km/h 6.3 km/h 89% 0.25 mm 135.00 W/m2
07:59 -1.6 °C -3.3 °C 1009.7 hPa North 16.1 km/h 8 km/h 88% 0.25 mm 145.10 W/m2
08:04 -1.6 °C -3.5 °C 1009.7 hPa NW 22.2 km/h 4.7 km/h 87% 0.25 mm 158.30 W/m2
08:09 -1.6 °C -3.5 °C 1009.7 hPa WSW 18.5 km/h 7.4 km/h 87% 0.25 mm 154.20 W/m2
08:14 -1.6 °C -3.5 °C 1010 hPa SW 9.3 km/h 5.3 km/h 87% 0.25 mm 169.40 W/m2
08:19 -1.6 °C -3.5 °C 1010 hPa SW 18.5 km/h 6.3 km/h 87% 0.25 mm 177.40 W/m2
08:24 -1.6 °C -3.5 °C 1010 hPa NW 9.3 km/h 5.6 km/h 87% 0 mm 185.50 W/m2
08:29 -1.6 °C -3.5 °C 1010 hPa WSW 22.2 km/h 5.1 km/h 87% 0 mm 182.50 W/m2
08:34 -1.6 °C -3.5 °C 1010 hPa WSW 14.8 km/h 5.1 km/h 87% 0 mm 190.60 W/m2
08:39 -1.6 °C -3.5 °C 1010.4 hPa SW 5.6 km/h 1.4 km/h 87% 0 mm 200.70 W/m2
08:44 -1.7 °C -3.7 °C 1010.4 hPa NW 14.5 km/h 8.5 km/h 86% 0 mm 201.70 W/m2
08:49 -1.7 °C -3.7 °C 1010.4 hPa SW 20.4 km/h 11.3 km/h 86% 0 mm 198.70 W/m2
08:54 -1.7 °C -3.8 °C 1010.4 hPa NW 14.8 km/h 3.5 km/h 85% 0 mm 214.80 W/m2
08:59 -1.7 °C -3.8 °C 1010.7 hPa WNW 18.5 km/h 6.3 km/h 85% 0 mm 216.80 W/m2
09:04 -1.6 °C -3.8 °C 1010.7 hPa West 6.4 km/h 4.3 km/h 85% 0 mm 218.90 W/m2
09:09 -1.6 °C -3.9 °C 1011.1 hPa NW 18.5 km/h 3.1 km/h 84% 0 mm 221.90 W/m2
09:14 -1.6 °C -3.9 °C 1011.1 hPa NNW 9.7 km/h 4.5 km/h 84% 0 mm 225.90 W/m2
09:19 -1.6 °C -3.7 °C 1011.1 hPa SW 5.6 km/h 1.6 km/h 85% 0 mm 224.90 W/m2
09:24 -1.5 °C -3.7 °C 1011.1 hPa West 11.3 km/h 0.6 km/h 85% 0 mm 221.90 W/m2
09:29 -1.4 °C -3.7 °C 1011.1 hPa West 9.3 km/h 3.5 km/h 84% 0 mm 221.90 W/m2
09:34 -1.3 °C -3.5 °C 1011.4 hPa West 1.9 km/h 0.3 km/h 85% 0 mm 226.90 W/m2
09:39 -1.2 °C -3.6 °C 1011.4 hPa North 13 km/h 5.1 km/h 84% 0 mm 234.00 W/m2
09:44 -1.2 °C -3.6 °C 1011.4 hPa NNE 14.8 km/h 4.7 km/h 84% 0 mm 239.10 W/m2
09:49 -1.2 °C -3.5 °C 1011.7 hPa SE 18.5 km/h 6.4 km/h 84% 0 mm 243.10 W/m2
09:54 -1.1 °C -3.4 °C 1011.7 hPa WNW 5.6 km/h 2.3 km/h 84% 0 mm 248.20 W/m2
09:59 -1 °C -3.4 °C 1011.7 hPa West 5.6 km/h 4 km/h 84% 0 mm 243.10 W/m2
10:04 -0.9 °C -3.2 °C 1011.7 hPa SW 7.4 km/h 5 km/h 85% 0 mm 244.10 W/m2
10:09 -0.9 °C -3.3 °C 1011.7 hPa NNW 5.6 km/h 5.8 km/h 84% 0 mm 244.10 W/m2
10:14 -0.9 °C -3.3 °C 1012.1 hPa WSW 9.3 km/h 5.8 km/h 84% 0 mm 255.20 W/m2
10:19 -0.9 °C -3.3 °C 1011.7 hPa WSW 5.6 km/h 3.5 km/h 84% 0 mm 250.20 W/m2
10:24 -0.8 °C -3.3 °C 1012.1 hPa SW 4.8 km/h 5 km/h 83% 0 mm 260.30 W/m2
10:29 -0.8 °C -3.3 °C 1012.1 hPa WNW 17.7 km/h 10.3 km/h 83% 0 mm 270.40 W/m2
10:34 -0.8 °C -3.4 °C 1012.1 hPa WSW 5.6 km/h 2.4 km/h 82% 0 mm 269.40 W/m2
10:39 -0.8 °C -3.4 °C 1012.1 hPa NW 9.3 km/h 10.1 km/h 82% 0 mm 269.40 W/m2
10:44 -0.7 °C -3.6 °C 1012.4 hPa WNW 11.1 km/h 3.9 km/h 81% 0 mm 273.40 W/m2
10:49 -0.7 °C -3.5 °C 1012.4 hPa North 18.5 km/h 5.3 km/h 81% 0 mm 262.30 W/m2
10:54 -0.7 °C -3.5 °C 1012.4 hPa WNW 7.4 km/h 3.7 km/h 81% 0 mm 256.20 W/m2
10:59 -0.7 °C -3.6 °C 1012.4 hPa NNW 16.1 km/h 7.1 km/h 81% 0 mm 253.20 W/m2
11:04 -0.8 °C -3.4 °C 1012.4 hPa SW 11.1 km/h 5.5 km/h 82% 0 mm 253.20 W/m2
11:09 -0.8 °C -3.5 °C 1012.8 hPa NNE 13 km/h 5.8 km/h 82% 0 mm 252.20 W/m2
11:14 -0.9 °C -3.8 °C 1012.8 hPa WSW 14.8 km/h 7.2 km/h 81% 0 mm 251.20 W/m2
11:19 -0.9 °C -3.9 °C 1012.8 hPa West 19.3 km/h 11.4 km/h 80% 0 mm 253.20 W/m2
11:24 -1 °C -4.2 °C 1012.8 hPa East 7.4 km/h 4.7 km/h 79% 0 mm 251.20 W/m2
11:29 -1.1 °C -4.2 °C 1012.8 hPa NNE 22.2 km/h 9.2 km/h 79% 0 mm 257.20 W/m2
11:34 -1.1 °C -4.2 °C 1013.1 hPa North 14.8 km/h 7.4 km/h 79% 0 mm 263.30 W/m2
11:39 -0.9 °C -4.3 °C 1013.1 hPa NE 11.1 km/h 4.3 km/h 78% 0 mm 290.60 W/m2
11:44 -0.8 °C -4.2 °C 1013.1 hPa NNW 9.3 km/h 4.8 km/h 78% 0 mm 307.70 W/m2
11:49 -0.7 °C -4.1 °C 1013.1 hPa SSW 14.8 km/h 4.7 km/h 78% 0 mm 297.60 W/m2
11:54 -0.6 °C -3.9 °C 1013.1 hPa WSW 6.4 km/h 1.9 km/h 78% 0 mm 294.60 W/m2
11:59 -0.5 °C -3.7 °C 1013.1 hPa NNW 11.3 km/h 7.9 km/h 79% 0 mm 283.50 W/m2
12:04 -0.5 °C -3.7 °C 1013.4 hPa NNE 3.7 km/h 3.5 km/h 79% 0 mm 281.50 W/m2
12:09 -0.5 °C -4.1 °C 1013.4 hPa West 13 km/h 4.3 km/h 77% 0 mm 295.60 W/m2
12:14 -0.6 °C -4.2 °C 1013.4 hPa WSW 13 km/h 4.7 km/h 77% 0 mm 289.60 W/m2
12:19 -0.7 °C -4.3 °C 1013.4 hPa WNW 16.7 km/h 6.9 km/h 77% 0 mm 280.50 W/m2
12:24 -0.7 °C -4.3 °C 1013.8 hPa WSW 7.4 km/h 4.2 km/h 77% 0 mm 290.60 W/m2
12:29 -0.6 °C -4.2 °C 1013.8 hPa WNW 16.7 km/h 3.5 km/h 77% 0 mm 291.60 W/m2
12:34 -0.6 °C -4.3 °C 1013.8 hPa NW 5.6 km/h 4.2 km/h 76% 0 mm 295.60 W/m2
12:39 -0.6 °C -4.3 °C 1013.8 hPa WSW 11.1 km/h 3.7 km/h 76% 0 mm 285.50 W/m2
12:44 -0.6 °C -4.3 °C 1014.1 hPa West 16.1 km/h 7.6 km/h 76% 0 mm 384.50 W/m2
12:49 -0.4 °C -4.3 °C 1014.1 hPa South 20.4 km/h 2.7 km/h 75% 0 mm 341.10 W/m2
12:54 -0.3 °C -4.6 °C 1014.1 hPa West 11.3 km/h 5.6 km/h 73% 0 mm 379.40 W/m2
12:59 -0.3 °C -4.6 °C 1014.1 hPa NNE 5.6 km/h 6.1 km/h 73% 0 mm 362.30 W/m2
13:04 -0.2 °C -4.4 °C 1014.1 hPa WNW 11.1 km/h 4.3 km/h 73% 0 mm 541.10 W/m2
13:09 -0.2 °C -4.6 °C 1014.4 hPa WSW 8 km/h 5.6 km/h 72% 0 mm 301.70 W/m2
13:14 -0.3 °C -4.3 °C 1014.4 hPa West 14.8 km/h 2.1 km/h 74% 0 mm 281.50 W/m2
13:19 -0.3 °C -4.4 °C 1014.4 hPa SW 14.8 km/h 4.7 km/h 74% 0 mm 277.40 W/m2
13:24 -0.4 °C -4.3 °C 1014.4 hPa WNW 9.3 km/h 5.3 km/h 75% 0 mm 273.40 W/m2
13:29 -0.6 °C -4.3 °C 1014.8 hPa West 18.5 km/h 7.1 km/h 76% 0 mm 276.40 W/m2
13:34 -0.6 °C -4.5 °C 1014.8 hPa West 9.7 km/h 5.8 km/h 75% 0 mm 281.50 W/m2
13:39 -0.6 °C -4.4 °C 1014.8 hPa NNW 11.1 km/h 2.7 km/h 75% 0 mm 321.90 W/m2
13:44 -0.4 °C -4.3 °C 1014.8 hPa North 14.8 km/h 7.4 km/h 75% 0 mm 316.80 W/m2
13:49 -0.3 °C -4.6 °C 1014.8 hPa WNW 18.5 km/h 7.2 km/h 73% 0 mm 311.80 W/m2
13:54 -0.3 °C -4.7 °C 1014.8 hPa West 5.6 km/h 3.1 km/h 72% 0 mm 321.90 W/m2
13:59 -0.2 °C -4.8 °C 1014.8 hPa WSW 25.7 km/h 9.8 km/h 71% 0 mm 321.90 W/m2
14:04 -0.2 °C -5.1 °C 1015.1 hPa SW 13 km/h 2.9 km/h 70% 0 mm 337.00 W/m2
14:09 -0.2 °C -4.8 °C 1015.1 hPa West 7.4 km/h 5.5 km/h 71% 0 mm 324.90 W/m2
14:14 -0.2 °C -4.8 °C 1015.1 hPa North 5.6 km/h 6.4 km/h 71% 0 mm 328.90 W/m2
14:19 -0.1 °C -4.9 °C 1015.1 hPa SE 14.8 km/h 3.7 km/h 70% 0 mm 311.80 W/m2
14:24 -0.2 °C -4.8 °C 1015.1 hPa SW 7.4 km/h 4.5 km/h 71% 0 mm 311.80 W/m2
14:29 -0.2 °C -4.7 °C 1015.1 hPa West 5.6 km/h 3.2 km/h 72% 0 mm 299.70 W/m2
14:34 -0.3 °C -4.7 °C 1015.5 hPa NNW 12.9 km/h 6.4 km/h 72% 0 mm 277.40 W/m2
14:39 -0.3 °C -5.2 °C 1015.5 hPa WNW 16.7 km/h 7.7 km/h 70% 0 mm 278.40 W/m2
14:44 -0.4 °C -5.2 °C 1015.5 hPa West 14.8 km/h 7.2 km/h 70% 0 mm 306.70 W/m2
14:49 -0.4 °C -5.2 °C 1015.5 hPa SSW 7.4 km/h 6.4 km/h 70% 0 mm 306.70 W/m2
14:54 -0.3 °C -4.9 °C 1015.5 hPa East 5.6 km/h 6 km/h 71% 0 mm 305.70 W/m2
14:59 -0.2 °C -5.1 °C 1015.8 hPa West 14.8 km/h 6.6 km/h 70% 0 mm 308.80 W/m2
15:04 -0.1 °C -5.3 °C 1015.5 hPa WSW 16.7 km/h 10.3 km/h 68% 0 mm 308.80 W/m2
15:09 -0.1 °C -5.3 °C 1015.8 hPa West 14.8 km/h 10.6 km/h 68% 0 mm 338.00 W/m2
15:14 -0.1 °C -5.5 °C 1015.8 hPa West 11.1 km/h 2.9 km/h 67% 0 mm 316.80 W/m2
15:19 -0.1 °C -5.3 °C 1016.1 hPa WNW 16.7 km/h 5 km/h 68% 0 mm 314.80 W/m2
15:24 -0.2 °C -5.6 °C 1016.1 hPa North 16.7 km/h 5.6 km/h 67% 0 mm 326.90 W/m2
15:29 -0.1 °C -5.7 °C 1016.1 hPa WSW 12.9 km/h 10 km/h 66% 0 mm 339.10 W/m2
15:34 -0.2 °C -5.8 °C 1016.1 hPa NW 14.8 km/h 6.1 km/h 66% 0 mm 313.80 W/m2
15:39 -0.2 °C -5.8 °C 1016.1 hPa West 13 km/h 7.6 km/h 66% 0 mm 292.60 W/m2
15:44 -0.2 °C -5.8 °C 1016.5 hPa WSW 7.4 km/h 6.8 km/h 66% 0 mm 292.60 W/m2
15:49 -0.1 °C -5.5 °C 1016.5 hPa WSW 3.7 km/h 1.4 km/h 67% 0 mm 282.50 W/m2
15:54 0 °C -5.6 °C 1016.5 hPa SW 5.6 km/h 1.4 km/h 66% 0 mm 312.80 W/m2
15:59 0.2 °C -5.7 °C 1016.5 hPa WNW 1.9 km/h 0.3 km/h 65% 0 mm 334.00 W/m2
16:04 0.3 °C -5.9 °C 1016.5 hPa West 18.5 km/h 5.8 km/h 63% 0 mm 336.00 W/m2
16:09 0.4 °C -6.1 °C 1016.5 hPa North 7.4 km/h 4.3 km/h 62% 0 mm 317.80 W/m2
16:14 0.3 °C -6.1 °C 1016.5 hPa West 5.6 km/h 3.2 km/h 62% 0 mm 292.60 W/m2
16:19 0.3 °C -6.1 °C 1016.5 hPa WNW 7.4 km/h 1 km/h 62% 0 mm 273.40 W/m2
16:24 0.3 °C -5.9 °C 1016.5 hPa SSW 8 km/h 6.1 km/h 63% 0 mm 275.40 W/m2
16:29 0.3 °C -5.9 °C 1016.8 hPa WSW 3.7 km/h 1.3 km/h 63% 0 mm 270.40 W/m2
16:34 0.3 °C -6.2 °C 1016.8 hPa SW 16.7 km/h 3.2 km/h 62% 0 mm 273.40 W/m2
16:39 0.2 °C -6.5 °C 1016.8 hPa SW 11.1 km/h 6.8 km/h 61% 0 mm 276.40 W/m2
16:44 0.1 °C -5.9 °C 1016.8 hPa NW 9.3 km/h 1.3 km/h 64% 0 mm 266.30 W/m2
16:49 0.1 °C -5.7 °C 1017.2 hPa West 5.6 km/h 4 km/h 65% 0 mm 263.30 W/m2
16:54 0.1 °C -5.6 °C 1017.2 hPa North 14.8 km/h 5.8 km/h 66% 0 mm 247.10 W/m2
16:59 -0.1 °C -5.5 °C 1017.5 hPa NNW 7.4 km/h 1.6 km/h 67% 0 mm 245.10 W/m2
17:04 -0.3 °C -5.5 °C 1017.5 hPa WSW 6.4 km/h 4.3 km/h 68% 0 mm 254.20 W/m2
17:09 -0.3 °C -5.5 °C 1017.5 hPa WSW 9.3 km/h 6.9 km/h 68% 0 mm 249.20 W/m2
17:14 -0.3 °C -6.1 °C 1017.5 hPa NW 8 km/h 9.5 km/h 65% 0 mm 252.20 W/m2
17:19 -0.3 °C -5.9 °C 1017.5 hPa WSW 11.1 km/h 5.5 km/h 66% 0 mm 249.20 W/m2
17:24 -0.3 °C -5.7 °C 1017.5 hPa NE 6.4 km/h 4 km/h 67% 0 mm 249.20 W/m2
17:29 -0.3 °C -5.7 °C 1017.8 hPa West 5.6 km/h 5.5 km/h 67% 0 mm 250.20 W/m2
17:34 -0.3 °C -5.9 °C 1017.8 hPa NW 14.8 km/h 6.9 km/h 66% 0 mm 244.10 W/m2
17:39 -0.5 °C -5.9 °C 1017.8 hPa WNW 16.7 km/h 4 km/h 67% 0 mm 227.90 W/m2
17:44 -0.6 °C -6.2 °C 1017.8 hPa NW 8 km/h 7.4 km/h 66% 0 mm 227.90 W/m2
17:49 -0.6 °C -6.2 °C 1017.8 hPa WSW 19.3 km/h 4.2 km/h 66% 0 mm 236.00 W/m2
17:54 -0.7 °C -6.8 °C 1018.2 hPa WNW 11.3 km/h 9.5 km/h 63% 0 mm 227.90 W/m2
17:59 -0.7 °C -7.3 °C 1018.2 hPa West 16.7 km/h 6.4 km/h 61% 0 mm 224.90 W/m2
18:04 -0.7 °C -7.5 °C 1018.2 hPa West 5.6 km/h 5 km/h 60% 0 mm 223.90 W/m2
18:09 -0.7 °C -7.7 °C 1018.2 hPa WSW 5.6 km/h 3.7 km/h 59% 0 mm 218.90 W/m2
18:14 -0.7 °C -7.6 °C 1018.5 hPa NW 6.4 km/h 2.7 km/h 60% 0 mm 216.80 W/m2
18:19 -0.7 °C -7.7 °C 1018.5 hPa SW 5.6 km/h 4 km/h 59% 0 mm 207.80 W/m2
18:24 -0.7 °C -7.7 °C 1018.5 hPa NW 5.6 km/h 3.2 km/h 59% 0 mm 203.70 W/m2
18:29 -0.8 °C -8 °C 1018.5 hPa West 22.2 km/h 7.4 km/h 58% 0 mm 199.70 W/m2
18:34 -0.8 °C -7.8 °C 1018.5 hPa WNW 11.1 km/h 7.2 km/h 59% 0 mm 184.50 W/m2
18:39 -0.8 °C -7.8 °C 1018.8 hPa West 13 km/h 2.3 km/h 59% 0 mm 184.50 W/m2
18:44 -0.9 °C -7.5 °C 1018.8 hPa NNE 9.3 km/h 4 km/h 61% 0 mm 181.50 W/m2
18:49 -0.9 °C -7.5 °C 1018.8 hPa SW 7.4 km/h 3.5 km/h 61% 0 mm 168.40 W/m2
18:54 -1 °C -7.6 °C 1018.8 hPa WNW 11.1 km/h 3.9 km/h 61% 0 mm 165.30 W/m2
18:59 -1.1 °C -7.4 °C 1018.8 hPa WNW 16.7 km/h 3.2 km/h 62% 0 mm 147.20 W/m2
19:04 -1.1 °C -7.6 °C 1019.2 hPa WSW 7.4 km/h 5 km/h 61% 0 mm 131.00 W/m2
19:09 -1.1 °C -7.5 °C 1019.2 hPa SW 18.5 km/h 3.9 km/h 62% 0 mm 121.90 W/m2
19:14 -1.2 °C -7.3 °C 1019.2 hPa West 3.7 km/h   63% 0 mm 98.70 W/m2
19:19 -1.2 °C -7.5 °C 1019.5 hPa WSW 11.3 km/h 6 km/h 62% 0 mm 61.30 W/m2
19:24 -1.2 °C -7.1 °C 1019.5 hPa NW 5.6 km/h 0.5 km/h 64% 0 mm 0.00 W/m2
19:29 -1.2 °C -7.4 °C 1019.5 hPa WSW 5.6 km/h 1.1 km/h 63% 0 mm 0.00 W/m2
19:34 -1.2 °C -7.6 °C 1019.5 hPa West 5.6 km/h   62% 0 mm 0.00 W/m2
19:39 -1.2 °C -7.6 °C 1019.5 hPa WSW 5.6 km/h   62% 0 mm 0.00 W/m2
19:44 -1.2 °C -7.6 °C 1019.5 hPa WNW 5.6 km/h 1.6 km/h 62% 0 mm 0.00 W/m2
19:49 -1.2 °C -7.2 °C 1019.5 hPa SSW 1.6 km/h 0.2 km/h 64% 0 mm 0.00 W/m2
19:54 -1.3 °C -7.4 °C 1019.9 hPa SW 3.7 km/h   63% 0 mm 0.00 W/m2
19:59 -1.3 °C -7 °C 1019.9 hPa WSW 3.7 km/h   65% 0 mm 0.00 W/m2
20:04 -1.3 °C -7.5 °C 1019.9 hPa West 8 km/h 6.1 km/h 63% 0 mm 0.00 W/m2
20:09 -1.3 °C -7.5 °C 1019.9 hPa West 9.3 km/h 11.9 km/h 63% 0 mm 0.00 W/m2
20:14 -1.3 °C -7.1 °C 1020.2 hPa WNW 3.7 km/h   65% 0 mm 0.00 W/m2
20:19 -1.3 °C -7.1 °C 1020.2 hPa Calm     65% 0 mm 0.00 W/m2
20:24 -1.3 °C -7.3 °C 1020.2 hPa SW 5.6 km/h 2.1 km/h 64% 0 mm 0.00 W/m2
20:29 -1.3 °C -7.1 °C 1020.2 hPa West 7.4 km/h 1.9 km/h 65% 0 mm 0.00 W/m2
20:34 -1.3 °C -7.3 °C 1020.2 hPa North 7.4 km/h 0.2 km/h 64% 0 mm 0.00 W/m2
20:39 -1.3 °C -6.9 °C 1020.2 hPa SW 7.4 km/h 3.7 km/h 66% 0 mm 0.00 W/m2
20:44 -1.4 °C -7.1 °C 1020.2 hPa WSW 5.6 km/h 2.6 km/h 65% 0 mm 0.00 W/m2
20:49 -1.4 °C -7.1 °C 1020.2 hPa NW 5.6 km/h 7.4 km/h 65% 0 mm 0.00 W/m2
20:54 -1.4 °C -6.9 °C 1020.5 hPa SW 5.6 km/h 3.1 km/h 66% 0 mm 0.00 W/m2
20:59 -1.4 °C -6.8 °C 1020.5 hPa WNW 7.4 km/h 3.4 km/h 67% 0 mm 0.00 W/m2
21:04 -1.5 °C -7.1 °C 1020.5 hPa West 11.1 km/h 7.7 km/h 66% 0 mm 0.00 W/m2
21:09 -1.6 °C -7.1 °C 1020.5 hPa SW 1.9 km/h   66% 0 mm 0.00 W/m2
21:14 -1.7 °C -7 °C 1020.5 hPa WNW 3.7 km/h 0.5 km/h 67% 0 mm 0.00 W/m2
21:19 -1.7 °C -6.8 °C 1020.5 hPa West 3.2 km/h   68% 0 mm 0.00 W/m2
21:24 -1.7 °C -6.7 °C 1020.5 hPa Calm   0.3 km/h 69% 0 mm 0.00 W/m2
21:29 -1.7 °C -7.1 °C 1020.5 hPa SSW 5.6 km/h 2.4 km/h 67% 0 mm 0.00 W/m2
21:34 -1.7 °C -6.8 °C 1020.5 hPa West 5.6 km/h 5.8 km/h 68% 0 mm 0.00 W/m2
21:39 -1.7 °C -6.8 °C 1020.9 hPa SW 1.9 km/h 0.2 km/h 68% 0 mm 0.00 W/m2
21:44 -1.7 °C -6.8 °C 1020.9 hPa SW 3.7 km/h 2.3 km/h 68% 0 mm 0.00 W/m2
21:49 -1.7 °C -6.8 °C 1020.9 hPa SSW 3.7 km/h   68% 0 mm 0.00 W/m2
21:54 -1.7 °C -6.3 °C 1020.9 hPa SSW 1.6 km/h 1.4 km/h 71% 0 mm 0.00 W/m2
21:59 -1.7 °C -6.6 °C 1020.9 hPa WSW 5.6 km/h 2.6 km/h 69% 0 mm 0.00 W/m2
22:04 -1.7 °C -6.4 °C 1020.9 hPa WSW 5.6 km/h 0.5 km/h 70% 0 mm 0.00 W/m2
22:09 -1.7 °C -6.1 °C 1021.2 hPa Calm     72% 0 mm 0.00 W/m2
22:14 -1.7 °C -6.1 °C 1021.2 hPa SW 16.7 km/h 6.1 km/h 72% 0 mm 0.00 W/m2
22:19 -1.7 °C -5.9 °C 1021.2 hPa SW 5.6 km/h 1.6 km/h 73% 0 mm 0.00 W/m2
22:24 -1.7 °C -5.7 °C 1021.2 hPa WNW 13 km/h 4.7 km/h 74% 0 mm 0.00 W/m2
22:29 -1.8 °C -5.8 °C 1021.2 hPa WSW 14.8 km/h 4.8 km/h 74% 0 mm 0.00 W/m2
22:34 -1.8 °C -5.6 °C 1021.2 hPa West 5.6 km/h 1.9 km/h 75% 0 mm 0.00 W/m2
22:39 -1.8 °C -5.7 °C 1021.2 hPa NNE 5.6 km/h 0.5 km/h 75% 0 mm 0.00 W/m2
22:44 -1.8 °C -5.5 °C 1021.2 hPa SW 4.8 km/h 5 km/h 76% 0 mm 0.00 W/m2
22:49 -2 °C -5.8 °C 1021.2 hPa WSW 6.4 km/h 1.3 km/h 75% 0 mm 0.00 W/m2
22:54 -2.1 °C -5.7 °C 1021.6 hPa WNW 9.7 km/h 2.4 km/h 76% 0 mm 0.00 W/m2
22:59 -2.2 °C -5.8 °C 1021.6 hPa SSW 7.4 km/h 5.1 km/h 76% 0 mm 0.00 W/m2
23:04 -2.2 °C -5.9 °C 1021.2 hPa West 5.6 km/h 3.9 km/h 76% 0 mm 0.00 W/m2
23:09 -2.3 °C -5.9 °C 1021.6 hPa NE 5.6 km/h 0.2 km/h 76% 0 mm 0.00 W/m2
23:14 -2.3 °C -6 °C 1021.6 hPa SW 5.6 km/h 1.3 km/h 76% 0 mm 0.00 W/m2
23:19 -2.3 °C -6 °C 1021.6 hPa West 18.5 km/h 5.8 km/h 76% 0 mm 0.00 W/m2
23:24 -2.3 °C -6 °C 1021.6 hPa WNW 5.6 km/h 3.9 km/h 76% 0 mm 0.00 W/m2
23:29 -2.3 °C -6 °C 1021.6 hPa West 5.6 km/h 0.2 km/h 76% 0 mm 0.00 W/m2
23:34 -2.3 °C -6 °C 1021.6 hPa WSW 7.4 km/h 0.8 km/h 76% 0 mm 0.00 W/m2
23:39 -2.3 °C -6 °C 1021.9 hPa WNW 4.8 km/h 1.9 km/h 76% 0 mm 0.00 W/m2
23:44 -2.3 °C -6 °C 1021.9 hPa WSW 7.4 km/h 6.8 km/h 76% 0 mm 0.00 W/m2
23:49 -2.3 °C -5.9 °C 1021.9 hPa NNW 7.4 km/h 6.4 km/h 76% 0 mm 0.00 W/m2
23:54 -2.3 °C -5.6 °C 1022.2 hPa North 7.4 km/h 5.6 km/h 78% 0 mm 0.00 W/m2
23:59 -2.7 °C -5.7 °C 1022.2 hPa WNW 18.5 km/h 7.2 km/h 80% 0 mm 0.00 W/m2
Winter, Wisconsin USA
Compliments of Weather Underground - 4 mb